Temp
58 58 59 58 58 58 58 58 57 58 58 58 58 59 59 59 58 66 63 70 73 71 69 77 79 80 79 76 81 82 68 65 69 73 79 91 89 94 96 92 94 96 91 92 95
58 58 58 58 58 58 58 57 57 57 58 58 58 58 59 58 59 60 70 67 67 67 72 70 70 76 73 71 75 73 65 67 78 82 82 87 89 90 89 89 89 91 92 94 94
57 58 58 58 58 58 57 57 57 57 57 57 58 58 58 60 58 66 67 67 68 69 73 72 73 71 69 74 70 70 66 75 78 83 85 86 86 92 86 83 88 88 89 91 91
57 57 57 57 57 57 57 56 56 57 57 57 58 58 58 60 51 70 68 69 69 74 73 71 68 64 63 65 73 64 72 76 78 82 82 81 87 83 86 87 94 96 93 92 89
57 57 57 57 57 57 56 56 56 56 56 56 57 58 59 57 60 78 71 74 76 74 69 68 65 65 61 67 71 69 72 74 77 79 80 82 80 81 82 89 94 95 94 91 91
56 56 56 56 56 56 56 55 55 55 55 56 57 56 56 47 74 77 76 74 73 71 68 71 68 71 68 68 68 73 74 75 77 77 79 77 78 79 81 88 88 90 91 92 91
56 56 56 56 55 55 55 55 55 55 55 56 56 59 54 53 71 72 72 70 72 71 66 71 75 70 71 65 74 73 68 73 75 76 75 78 71 72 81 85 84 86 88 90 92
56 56 55 55 55 55 55 54 54 55 56 57 56 59 49 69 73 70 72 69 73 72 70 72 71 65 63 71 69 65 67 60 73 75 76 75 63 74 81 80 80 84 86 87 90
56 55 55 55 54 54 54 55 55 56 58 57 57 56 51 69 65 70 71 65 69 71 71 73 69 60 62 58 56 61 55 59 64 76 73 71 65 75 80 81 78 82 84 86 88
55 55 55 55 54 54 54 54 60 59 63 66 66 56 61 58 66 68 70 68 63 63 63 63 59 52 55 54 44 52 54 60 61 71 73 68 67 73 78 79 79 82 84 85 87
55 55 55 54 54 53 56 65 58 56 59 54 55 55 59 67 70 65 67 65 63 59 50 58 50 41 48 57 60 60 60 59 65 73 70 68 69 72 75 75 76 81 82 82 85
55 55 54 54 54 54 60 52 49 48 40 57 61 61 65 67 57 60 62 53 55 48 55 51 47 54 57 58 58 59 57 59 67 72 69 69 69 75 76 75 77 79 79 80 82
54 54 54 53 54 55 60 56 61 56 40 55 63 60 63 64 56 55 61 57 49 49 50 47 52 59 56 55 53 57 56 58 59 67 70 68 65 71 77 78 80 81 83 83 82
54 54 53 53 52 62 57 64 64 58 38 48 55 60 64 64 54 63 63 57 51 44 50 48 58 57 54 52 56 50 62 62 61 59 52 62 49 66 73 73 76 78 79 79 80
54 53 53 53 54 58 60 65 64 55 25 50 55 70 65 57 58 57 64 53 47 48 48 46 51 53 52 54 59 54 62 59 61 57 56 56 52 61 70 67 72 76 78 79 77
53 53 53 60 58 62 65 62 57 34 24 44 55 53 53 56 56 58 52 57 55 48 49 49 58 55 57 60 62 64 58 57 56 47 40 50 48 52 62 68 73 77 79 80 79
53 53 53 60 55 63 62 56 35 28 46 43 46 52 51 49 51 51 48 44 36 35 38 46 51 56 59 54 60 56 52 37 32 31 33 54 49 52 67 72 73 74 76 75 81
53 52 58 62 64 61 57 46 28 36 41 51 49 51 45 49 48 47 45 40 46 44 38 32 36 39 55 53 51 54 48 36 28 31 40 54 46 55 69 74 76 77 75 76 75
52 58 58 62 62 60 50 31 31 40 47 44 48 42 42 47 47 46 42 41 44 47 32 31 32 40 47 54 56 50 46 54 41 43 34 47 56 65 71 71 73 74 74 70 72
55 58 60 62 62 55 42 32 39 48 49 48 38 44 37 41 40 42 41 44 43 49 50 40 31 42 43 51 55 50 53 40 37 28 27 39 46 50 60 63 70 66 66 67 70
53 51 57 63 60 50 32 36 44 52 50 44 41 40 42 40 41 39 40 46 47 47 50 45 38 39 46 36 35 42 41 38 39 36 32 32 44 57 54 59 59 62 65 66 66
55 38 59 61 42 42 36 44 42 48 51 48 48 45 42 43 40 40 39 42 50 49 40 45 39 32 40 49 49 42 38 38 28 28 31 32 40 58 58 59 59 61 65 66 67
49 48 60 57 33 34 42 41 46 46 48 46 44 47 48 42 35 40 43 49 51 48 40 43 35 29 35 42 45 39 40 41 38 34 31 26 37 54 54 50 51 57 60 64 65
47 34 39 48 51 44 41 39 37 49 47 49 46 48 45 39 44 38 41 48 51 50 46 46 38 33 26 30 38 36 42 40 37 30 32 32 36 45 49 45 49 54 59 62 64
43 37 48 33 38 45 47 43 40 40 48 49 44 45 43 34 35 36 42 44 48 47 48 41 31 37 38 40 40 40 41 43 40 39 33 37 40 48 52 47 48 56 62 62 63
34 41 50 47 49 45 42 36 40 44 45 41 41 45 45 38 40 34 40 41 39 45 43 44 31 35 28 40 42 39 43 44 43 44 43 45 44 55 58 60 59 59 60 61 63
53 57 49 44 45 43 42 43 42 46 46 48 46 43 40 44 48 48 48 46 45 41 39 37 33 30 25 38 36 29 39 43 45 48 47 40 48 55 54 56 57 58 60 60 62
MSLP
1020.57 1020.42 1020.15 1020.02 1019.77 1019.59 1019.40 1019.36 1018.97 1018.68 1018.35 1018.13 1017.62 1017.28 1016.86 1016.31 1015.75 1014.38 1012.76 1011.29 1010.73 1010.90 1011.03 1010.41 1009.73 1008.86 1008.75 1007.92 1007.15 1006.59 1005.32 1002.85 1001.54 1000.42 998.85 997.26 996.85 997.07 997.81 998.17 998.30 998.54 999.50 1000.57 1001.07
1020.70 1020.53 1020.30 1020.09 1019.83 1019.69 1019.60 1019.26 1018.87 1018.60 1018.43 1018.05 1017.48 1017.16 1016.76 1016.13 1015.38 1013.09 1011.26 1010.79 1010.79 1010.91 1010.94 1010.51 1009.68 1008.69 1008.12 1007.67 1006.91 1006.05 1004.73 1002.22 1002.03 1000.63 999.42 998.07 997.31 997.36 998.00 998.18 998.39 999.05 1000.09 1000.77 1001.26
1020.73 1020.58 1020.35 1020.13 1019.91 1019.70 1019.41 1019.11 1018.88 1018.55 1018.38 1017.90 1017.29 1017.04 1016.69 1016.01 1013.96 1010.65 1011.09 1010.95 1010.89 1010.92 1010.77 1010.56 1009.92 1009.03 1007.56 1006.87 1006.61 1005.57 1003.51 1003.06 1002.09 1001.01 999.97 998.78 998.08 997.50 998.11 998.28 998.75 998.81 999.88 1000.77 1001.38
1020.80 1020.63 1020.47 1020.25 1019.96 1019.68 1019.42 1019.14 1018.77 1018.43 1018.13 1017.65 1017.19 1016.96 1016.42 1015.68 1012.54 1010.58 1010.87 1010.82 1010.78 1010.55 1010.02 1009.45 1009.56 1008.72 1007.53 1006.16 1005.69 1005.31 1003.70 1002.89 1002.09 1001.24 1000.42 999.62 999.11 998.46 998.35 998.38 998.41 998.51 999.04 1000.18 1001.07
1020.83 1020.68 1020.49 1020.23 1019.88 1019.59 1019.28 1018.96 1018.60 1018.25 1017.81 1017.50 1017.35 1017.07 1016.10 1013.96 1011.83 1010.56 1010.46 1010.24 1010.37 1010.04 1009.32 1008.62 1008.40 1007.80 1006.54 1005.67 1005.41 1004.14 1002.96 1003.08 1002.55 1001.75 1000.96 1000.59 999.78 999.58 999.49 999.19 998.90 998.82 999.26 999.89 1000.46
1020.92 1020.68 1020.40 1020.11 1019.74 1019.35 1018.96 1018.58 1018.16 1017.70 1017.38 1017.17 1017.03 1017.00 1015.95 1013.72 1011.21 1010.59 1010.49 1010.56 1010.33 1009.93 1009.27 1008.08 1007.32 1006.95 1005.94 1005.14 1004.51 1003.39 1002.87 1002.31 1001.95 1001.72 1001.24 1000.81 1000.47 1000.68 999.99 999.94 999.59 999.09 999.18 999.53 1000.12
1020.94 1020.68 1020.42 1020.08 1019.66 1019.11 1018.55 1018.12 1017.69 1017.27 1016.95 1016.77 1016.77 1016.47 1015.20 1013.41 1012.13 1011.76 1011.33 1010.82 1010.44 1009.86 1008.98 1007.96 1006.93 1006.50 1005.57 1004.69 1003.99 1003.37 1002.53 1001.72 1001.14 1000.97 1000.94 1001.17 1000.72 1000.11 1000.32 1000.67 1000.04 999.68 999.32 999.36 999.52
1020.97 1020.65 1020.31 1019.97 1019.60 1019.00 1018.34 1017.76 1017.27 1016.78 1016.53 1016.31 1016.36 1015.78 1013.98 1012.30 1011.71 1011.29 1010.62 1010.06 1009.77 1009.54 1008.88 1008.19 1007.71 1007.30 1006.03 1004.77 1003.84 1003.11 1002.34 1000.98 1000.00 1000.32 1000.44 1001.03 999.11 999.23 1000.27 1000.67 1000.14 999.62 999.32 999.32 999.23
1020.98 1020.69 1020.39 1020.06 1019.55 1018.66 1017.77 1016.98 1016.54 1016.01 1015.90 1015.97 1015.84 1014.65 1012.69 1011.88 1011.36 1010.96 1010.66 1009.69 1008.83 1008.34 1008.12 1007.98 1007.84 1007.41 1006.24 1004.87 1003.99 1002.41 1001.00 1000.16 999.73 999.60 999.79 999.94 998.16 998.28 999.65 999.40 999.50 999.16 998.89 998.76 998.63
1021.00 1020.73 1020.43 1019.99 1019.32 1018.36 1017.43 1015.71 1015.07 1015.27 1014.62 1014.62 1013.69 1013.02 1011.95 1011.26 1010.51 1010.35 1010.06 1009.65 1009.25 1008.78 1007.69 1007.34 1007.44 1007.19 1006.02 1004.59 1002.49 1001.12 1000.26 999.15 998.03 998.39 998.72 998.75 998.02 998.46 998.92 998.72 998.71 998.39 997.99 998.14 998.05
1020.98 1020.72 1020.40 1019.96 1019.31 1018.37 1017.29 1014.65 1015.20 1015.14 1014.80 1014.24 1013.39 1012.60 1011.81 1010.55 1010.16 1009.56 1009.32 1008.67 1008.44 1008.03 1007.24 1006.67 1006.60 1005.87 1005.33 1004.05 1002.68 1001.63 999.99 998.98 998.08 998.04 998.14 997.68 997.19 997.49 998.20 998.35 997.98 997.28 997.38 997.49 997.17
1020.97 1020.71 1020.36 1019.95 1019.47 1018.57 1017.68 1017.26 1018.32 1019.05 1016.96 1014.28 1012.76 1011.71 1010.97 1010.27 1009.45 1009.63 1010.75 1009.22 1007.88 1007.23 1006.77 1006.46 1004.98 1005.11 1005.34 1004.22 1002.74 1001.26 1000.02 998.50 997.90 997.70 997.29 996.84 996.00 996.14 996.68 997.12 997.13 996.91 996.96 997.39 997.02
1020.91 1020.67 1020.31 1019.91 1019.30 1018.79 1017.40 1017.72 1018.17 1018.54 1017.43 1013.17 1011.19 1010.82 1009.97 1010.01 1009.21 1009.20 1009.12 1008.64 1008.32 1006.91 1006.34 1005.35 1004.31 1004.62 1004.22 1003.49 1002.47 1000.81 999.90 999.10 998.30 997.60 996.97 996.65 995.67 995.10 995.22 995.91 996.28 996.25 996.32 996.74 996.78
1020.82 1020.61 1020.24 1019.57 1019.55 1017.62 1017.40 1017.48 1017.48 1018.17 1016.56 1013.02 1010.84 1009.85 1009.36 1008.84 1008.71 1009.28 1009.09 1008.67 1007.74 1007.47 1005.99 1005.31 1004.01 1003.24 1003.08 1002.57 1001.89 1000.35 1000.13 999.61 998.96 998.35 997.30 997.86 996.41 995.10 994.78 995.31 995.77 995.90 996.03 996.16 996.44
1020.68 1020.45 1020.13 1019.91 1019.25 1017.42 1017.79 1017.48 1017.41 1017.79 1015.76 1013.13 1010.78 1009.75 1009.17 1008.95 1008.56 1008.72 1008.93 1008.80 1007.63 1006.90 1006.76 1004.99 1003.81 1002.98 1001.82 1001.38 1001.44 1000.59 1000.86 1000.10 999.60 999.20 998.70 998.36 997.70 995.75 995.32 995.24 995.38 995.27 995.49 995.70 996.21
1020.56 1020.38 1020.03 1018.60 1018.59 1017.93 1017.63 1017.61 1017.49 1017.34 1015.28 1012.94 1011.37 1009.97 1009.34 1008.89 1008.72 1008.45 1009.11 1009.12 1008.13 1007.43 1006.83 1005.60 1004.58 1003.54 1001.91 1001.47 1000.73 1000.82 1001.10 1000.72 1000.94 1001.65 999.68 999.45 999.21 996.88 995.38 994.39 994.45 994.38 994.62 994.86 995.62
1020.45 1020.23 1020.14 1019.04 1018.06 1017.83 1017.69 1017.07 1017.08 1016.32 1015.56 1013.33 1011.92 1010.58 1009.90 1009.56 1009.19 1009.15 1008.99 1009.23 1009.46 1008.21 1006.79 1005.59 1003.89 1003.74 1002.75 1001.51 1000.78 1001.77 1001.02 1001.58 1002.20 1002.50 1000.69 999.46 998.89 997.28 995.49 994.72 994.25 994.27 994.52 994.74 994.54
1020.22 1020.12 1019.03 1018.45 1018.11 1018.03 1017.60 1016.68 1016.55 1016.28 1014.79 1013.96 1012.62 1011.32 1010.73 1010.51 1010.02 1010.31 1010.06 1009.90 1009.82 1009.19 1008.09 1007.34 1005.34 1006.32 1003.75 1002.88 1001.67 1001.07 1002.05 1002.26 1002.24 1002.30 1000.97 999.59 997.71 995.65 996.17 995.34 995.11 994.92 994.98 995.63 996.17
1020.02 1018.91 1018.42 1017.81 1018.15 1017.91 1017.34 1017.05 1016.69 1015.81 1015.13 1014.40 1012.89 1012.21 1011.63 1011.50 1011.22 1010.73 1011.01 1010.87 1010.65 1010.19 1010.29 1009.01 1008.05 1007.80 1006.43 1004.35 1002.77 1001.94 1001.40 1002.62 1003.40 1003.25 1002.83 999.82 997.75 996.63 995.59 995.31 995.09 995.24 995.76 996.73 997.40
1019.44 1018.15 1017.24 1017.81 1017.87 1017.75 1017.48 1017.42 1016.65 1015.94 1015.44 1014.89 1013.83 1013.32 1012.61 1012.32 1012.22 1011.81 1011.54 1012.07 1011.50 1011.07 1010.53 1010.14 1008.82 1008.11 1007.55 1005.82 1004.00 1003.50 1003.84 1003.85 1004.59 1004.54 1003.63 1001.56 999.29 997.59 996.31 996.22 995.47 995.91 996.99 998.11 998.70
1019.41 1017.57 1017.69 1017.64 1017.68 1017.39 1017.67 1017.37 1016.63 1015.76 1015.84 1015.46 1014.87 1014.28 1013.74 1013.23 1013.21 1012.82 1012.61 1012.21 1012.20 1011.47 1010.86 1010.51 1010.07 1008.75 1007.62 1008.32 1007.23 1005.03 1005.50 1006.60 1005.97 1006.14 1004.75 1002.97 999.98 999.43 998.96 998.58 998.20 998.44 999.34 999.97 1000.30
1018.36 1017.74 1017.51 1017.57 1017.56 1017.85 1017.75 1017.12 1017.26 1015.91 1015.67 1015.35 1015.15 1014.53 1014.29 1014.05 1013.76 1013.36 1012.97 1013.24 1012.88 1012.10 1011.52 1011.34 1010.69 1009.23 1007.74 1007.41 1007.72 1007.73 1008.22 1008.65 1008.74 1008.45 1006.90 1005.12 1002.19 1000.42 1000.99 1000.90 1000.33 1000.84 1001.13 1001.45 1001.62
1017.83 1017.72 1017.42 1017.54 1017.49 1017.77 1017.70 1017.42 1017.16 1016.25 1015.52 1015.32 1015.20 1014.92 1014.90 1014.65 1014.55 1014.39 1013.64 1013.58 1012.87 1012.51 1012.81 1012.52 1011.38 1009.99 1007.83 1007.86 1008.80 1009.32 1009.46 1009.33 1009.53 1009.40 1007.71 1006.91 1003.69 1003.33 1003.46 1003.67 1004.00 1003.53 1002.99 1002.98 1002.90
1018.31 1018.60 1018.50 1017.88 1017.09 1016.88 1016.77 1017.02 1016.92 1016.38 1015.98 1015.65 1015.45 1015.11 1014.79 1015.12 1015.03 1014.66 1014.04 1013.39 1013.17 1012.91 1013.30 1013.35 1012.93 1012.18 1011.54 1011.43 1010.98 1009.81 1009.22 1009.57 1009.60 1009.12 1008.18 1007.53 1005.99 1005.16 1005.01 1005.67 1005.55 1005.07 1004.54 1004.19 1003.49
1018.91 1018.52 1017.27 1017.82 1017.37 1016.78 1016.33 1016.55 1016.22 1015.81 1015.72 1015.69 1015.35 1015.13 1014.88 1015.03 1015.13 1015.05 1014.41 1014.02 1013.58 1013.54 1013.43 1014.18 1013.54 1012.96 1012.53 1011.96 1011.10 1009.92 1009.06 1008.63 1008.48 1008.37 1008.04 1007.22 1005.88 1004.92 1004.90 1005.20 1006.12 1005.03 1003.96 1003.75 1003.07
1018.77 1017.90 1016.94 1016.66 1016.21 1016.50 1016.27 1016.60 1016.01 1015.48 1015.23 1015.50 1015.29 1014.97 1015.01 1015.13 1015.09 1014.81 1014.78 1014.54 1014.24 1013.89 1013.70 1013.81 1013.89 1013.80 1013.00 1012.00 1010.67 1009.21 1008.33 1007.86 1007.66 1007.53 1007.04 1006.28 1005.22 1004.30 1004.05 1004.00 1003.80 1004.00 1003.82 1003.27 1002.91
1017.77 1016.90 1017.19 1016.79 1016.11 1015.89 1015.68 1015.62 1015.55 1015.43 1015.62 1015.46 1015.26 1015.20 1015.30 1015.20 1015.12 1015.10 1015.06 1014.80 1014.39 1014.07 1013.81 1013.98 1014.15 1014.06 1013.05 1011.93 1011.00 1009.40 1007.85 1006.93 1006.29 1005.76 1005.56 1005.09 1004.38 1003.99 1003.35 1002.94 1003.09 1003.26 1003.22 1003.20 1003.01
Wind_Speed
12 12 12 12 12 12 12 12 13 14 14 14 14 15 17 18 21 20 19 17 9 3 6 12 16 14 13 17 20 17 15 18 27 26 20 23 6 8 5 15 5 5 11 12 16
12 13 13 13 13 12 12 12 13 14 14 15 15 15 17 17 20 22 21 4 7 8 14 14 15 16 14 11 13 18 15 28 22 22 22 25 18 10 12 14 10 6 10 9 13
12 13 13 14 14 14 14 15 15 15 15 16 16 16 17 19 18 3 7 8 7 7 15 19 20 19 22 18 18 17 25 20 22 25 25 25 22 7 14 16 15 13 12 11 14
11 12 13 14 15 15 15 15 15 16 17 16 17 17 17 12 8 7 2 1 6 12 17 19 22 22 23 25 23 22 27 24 24 24 22 22 17 19 11 14 12 16 18 15 16
11 12 13 15 15 16 16 16 16 17 17 16 15 15 12 9 19 16 3 4 11 13 16 15 22 23 26 23 23 25 28 23 24 24 22 21 20 16 19 20 15 14 9 10 9
11 12 14 15 16 17 18 19 18 18 17 16 14 13 13 19 12 15 15 13 15 16 17 19 21 23 22 25 27 27 24 24 22 23 24 22 20 14 20 19 20 16 15 10 11
12 13 14 15 18 20 20 20 19 18 17 14 11 9 14 17 20 21 21 20 21 19 20 21 19 21 22 25 23 27 28 25 24 23 25 21 22 27 19 20 21 21 19 16 15
12 14 15 17 19 21 20 19 18 18 14 10 8 9 10 15 15 17 17 17 20 22 23 21 18 17 18 22 23 27 27 25 25 26 26 22 27 28 20 21 24 22 18 19 19
12 14 15 15 17 21 22 22 19 17 10 8 7 10 10 14 10 19 21 18 17 16 20 19 17 17 13 20 18 22 21 30 29 26 20 23 34 26 16 19 25 23 21 18 17
12 14 15 15 18 22 24 28 12 8 11 11 12 14 3 17 17 18 18 20 19 20 19 22 12 14 13 16 21 25 31 26 29 28 25 26 26 24 18 14 19 24 21 21 20
11 13 15 16 19 22 19 6 4 4 7 8 11 10 17 18 17 22 20 17 18 22 19 22 18 17 25 26 26 27 27 31 23 22 28 25 27 24 19 21 21 20 16 11 17
10 12 15 16 18 21 8 7 6 1 9 11 14 11 13 14 20 16 12 16 12 16 17 21 24 27 24 28 29 29 30 30 24 24 23 26 31 26 23 24 20 18 15 14 16
9 11 14 17 19 11 9 9 5 2 5 10 12 7 13 12 13 18 15 15 17 19 18 22 24 28 28 27 30 28 27 24 26 22 22 19 29 25 26 18 18 20 16 16 16
8 11 13 18 9 6 7 9 4 3 4 12 12 6 16 13 5 11 19 20 13 14 17 13 25 28 30 31 28 26 23 25 24 22 18 2 16 21 20 18 19 19 18 13 11
8 11 14 9 9 5 7 8 4 2 3 17 13 15 16 14 16 18 13 14 19 14 18 15 16 26 29 30 29 23 22 24 20 22 17 20 15 16 18 20 22 18 14 12 11
9 11 15 1 7 8 9 8 2 4 4 12 16 16 15 14 17 9 16 18 10 11 15 20 19 18 18 26 25 26 24 24 17 9 15 21 14 13 17 20 26 22 25 24 20
9 11 11 7 7 10 9 6 4 3 11 12 20 18 14 19 16 22 19 16 11 11 11 19 16 13 15 17 21 17 20 9 5 7 6 20 18 19 14 20 22 19 6 13 21
11 11 5 7 6 8 8 5 3 4 7 15 15 15 13 19 16 17 16 18 17 19 16 8 5 19 15 16 18 18 17 8 11 6 16 18 19 22 22 21 21 6 9 10 9
13 7 7 3 5 6 6 1 1 6 11 12 16 12 12 18 14 15 10 18 13 20 15 8 8 10 19 16 17 16 19 18 18 7 5 7 11 25 18 21 26 18 10 11 11
6 6 2 2 4 6 1 1 3 5 9 10 11 11 14 16 15 14 16 12 17 19 18 10 11 2 11 16 11 2 7 5 6 7 10 7 15 11 8 11 17 11 14 12 10
6 3 4 3 4 2 1 4 6 3 6 7 11 13 14 13 15 13 13 10 16 18 18 17 9 12 9 3 6 5 3 6 4 3 5 5 11 12 11 13 17 18 14 11 9
5 1 4 3 2 2 3 4 2 7 4 6 7 9 10 14 10 10 13 13 12 18 17 13 8 12 13 4 6 12 7 4 5 5 4 4 5 14 14 15 14 13 11 8 7
1 3 4 4 2 2 3 3 8 9 7 4 8 9 11 11 7 12 14 8 9 15 10 13 8 11 9 7 18 9 4 1 4 2 2 0 5 14 17 20 21 10 10 11 9
3 0 4 4 5 8 6 4 4 7 7 8 9 12 10 7 10 9 16 11 17 14 2 5 8 12 9 8 11 15 15 7 1 2 6 7 19 18 13 16 17 13 7 13 10
2 4 5 2 4 9 6 5 7 6 4 7 7 10 11 4 6 10 16 17 15 6 11 3 7 14 16 17 17 19 18 15 12 11 12 14 18 17 13 12 13 23 9 15 13
4 3 4 8 4 6 3 3 9 9 5 5 9 11 9 9 13 14 17 15 16 17 15 11 6 14 15 18 17 16 15 15 16 16 18 18 19 16 14 13 11 7 12 13 12
4 0 3 6 6 8 9 11 8 5 5 8 9 9 10 12 13 14 14 16 17 17 15 13 8 10 13 14 18 12 12 14 14 11 11 12 14 12 14 14 11 11 12 12 11
Wind_Direction
20 16 14 11 8 4 3 359 356 350 346 338 334 327 322 317 310 297 262 242 276 2 328 283 269 258 250 263 253 255 261 246 245 252 257 267 229 149 221 250 177 193 77 96 131
14 9 6 3 2 358 352 350 347 345 343 337 334 326 320 312 303 282 264 349 11 22 276 262 262 254 235 242 246 234 243 243 248 256 261 273 272 191 220 232 251 172 103 143 162
11 5 1 357 352 347 342 339 334 333 332 336 334 326 318 312 293 91 38 39 6 328 262 258 264 265 259 230 226 251 239 243 250 262 275 270 305 199 228 215 224 202 158 170 176
7 1 356 351 347 342 336 330 325 324 322 326 331 324 317 303 304 91 155 40 314 290 267 234 234 240 244 243 229 229 253 253 248 266 276 277 272 293 264 264 241 228 164 165 180
0 356 351 346 343 337 328 322 319 315 313 312 315 319 318 280 256 271 218 274 295 292 283 227 223 228 237 236 241 233 237 238 262 269 270 276 278 259 275 279 253 273 171 154 197
353 351 348 343 338 331 324 319 314 309 308 304 303 310 282 278 283 322 330 313 292 281 279 262 233 231 244 239 239 239 245 246 235 241 262 261 266 260 255 274 283 275 251 216 198
352 350 346 342 337 330 325 319 311 301 298 295 294 280 279 271 299 297 291 286 280 272 269 272 269 256 242 243 245 245 251 242 239 238 234 258 251 246 246 256 257 258 262 247 231
349 350 349 344 337 325 315 309 302 294 294 281 267 274 278 282 284 279 281 273 264 264 264 264 290 298 278 254 249 249 238 247 235 227 234 238 246 238 235 241 252 249 235 242 244
348 350 347 339 331 319 313 302 292 281 269 249 238 206 298 315 307 304 301 299 309 272 242 251 257 269 275 242 238 233 238 228 239 232 219 223 244 252 241 242 228 237 240 242 237
345 346 342 339 330 318 314 294 269 274 224 224 253 288 280 324 304 315 286 277 277 277 268 235 232 237 227 228 220 219 222 232 226 225 222 223 239 250 254 264 247 234 225 232 234
342 340 338 337 327 323 326 344 358 183 11 335 304 301 294 315 320 309 335 270 251 248 246 228 221 225 230 224 234 236 233 230 243 234 223 239 233 228 221 254 259 229 236 266 239
333 336 336 332 324 318 329 52 43 310 312 277 268 266 275 322 319 336 327 320 236 256 232 243 222 222 237 238 237 243 238 245 239 235 245 229 233 227 217 219 235 253 196 240 260
326 333 331 324 320 293 35 58 100 165 286 300 287 278 333 304 338 320 293 302 285 261 254 232 236 222 226 235 242 236 246 244 255 256 250 228 258 239 214 222 244 228 240 216 240
325 328 325 320 290 313 54 7 59 102 282 7 343 347 323 315 333 28 320 315 291 262 257 265 233 239 218 233 238 244 251 248 252 253 246 51 263 246 223 216 229 243 242 212 233
323 327 321 321 304 15 346 349 11 228 360 332 344 330 323 337 332 14 25 315 277 261 293 261 281 231 246 221 230 249 254 260 262 247 264 252 244 250 234 224 235 226 231 217 210
317 320 326 227 227 357 339 309 208 240 0 318 349 339 346 357 346 3 60 359 287 297 267 260 269 291 259 247 245 230 235 253 260 296 261 223 237 243 240 230 224 221 222 223 200
309 312 302 312 338 335 316 261 284 19 314 345 338 338 360 357 352 12 7 26 31 338 314 318 249 238 263 287 239 230 236 222 258 220 236 237 222 239 249 263 279 288 299 8 198
303 306 273 275 338 318 298 292 240 309 323 343 321 345 9 8 354 35 358 22 6 13 328 352 278 354 347 291 273 214 215 237 211 220 238 225 231 233 235 267 271 341 60 60 19
306 254 245 131 317 312 288 287 67 298 350 335 318 354 353 7 1 360 15 13 359 7 6 328 349 343 325 314 280 259 234 215 254 274 306 276 246 242 240 223 247 251 142 62 60
304 253 253 71 313 285 6 330 275 311 330 326 334 348 344 3 356 356 9 20 6 354 346 323 317 32 311 336 294 152 11 261 155 213 232 240 234 245 251 273 232 111 86 82 76
266 245 105 332 275 297 142 240 251 310 343 332 336 319 332 350 338 349 12 21 6 345 354 339 335 326 341 356 328 10 87 340 4 288 253 229 209 88 48 30 62 70 68 62 61
266 23 99 299 125 5 230 297 359 289 296 270 290 306 336 329 341 353 345 1 358 343 357 350 306 316 299 219 41 68 17 66 338 37 352 332 267 61 50 63 63 63 46 53 32
245 274 134 252 185 220 264 301 293 295 296 326 310 323 324 324 339 334 325 342 340 346 13 336 340 336 3 93 4 345 154 83 141 190 327 258 273 35 26 17 7 16 352 345 354
83 189 328 315 236 269 218 238 240 268 283 271 281 294 302 321 325 313 312 326 341 355 18 338 318 321 325 323 292 307 319 158 11 292 309 277 289 301 325 356 333 311 320 295 298
27 236 196 207 234 262 227 222 251 279 224 302 290 307 305 320 295 292 319 325 326 5 309 17 306 327 326 323 305 296 290 289 279 241 250 274 277 283 286 186 235 272 256 275 287
151 217 229 271 216 241 216 268 269 258 233 256 278 287 319 312 306 318 316 315 314 315 312 325 305 318 303 302 290 297 307 309 294 280 278 278 276 287 279 275 271 271 274 278 284
289 262 274 298 260 233 225 230 228 272 323 303 292 302 300 295 318 316 308 297 289 282 282 283 282 289 289 310 330 299 269 262 268 294 299 273 289 324 311 304 327 344 338 315 310